When you browse on this site, cookies collect data to enhance your experience and personalize the content and advertising you see.
Visit our Privacy Policy to learn more. By continuing to use the site, you agree to this use of cookies and data.
  • In Romania
  • List of Countries
  • For 7 days
  • Water Temperature
  • Satellite Maps
  • Weather Map
  • Weather Widgets
  • user-avatar
    Login

    Hourly Weather Bracknell

    Today, 27 June, Thursday

    Time Temperature Precipitation Wind Pressure Humidity
    00:00 +13°C° 0 mm 5 mps 764 mmHg 87%
    01:00 +13°C° 0 mm 5 mps 764 mmHg 88%
    02:00 +12°C° 0 mm 5 mps 764 mmHg 89%
    03:00 +12°C° 0 mm 5 mps 764 mmHg 90%
    04:00 +11°C° 0 mm 6 mps 764 mmHg 88%
    05:00 +13°C° 0 mm 6 mps 764 mmHg 86%
    06:00 +13°C° 0 mm 6 mps 764 mmHg 83%
    07:00 +14°C° 0 mm 6 mps 764 mmHg 79%
    08:00 +16°C° 0 mm 6 mps 764 mmHg 75%
    09:00 +17°C° 0 mm 6 mps 764 mmHg 70%
    10:00 +19°C° 0 mm 6 mps 764 mmHg 67%
    11:00 +20°C° 0 mm 6 mps 764 mmHg 64%
    12:00 +21°C° 0 mm 7 mps 764 mmHg 62%
    13:00 +22°C° 0 mm 7 mps 764 mmHg 62%
    14:00 +22°C° 0 mm 7 mps 764 mmHg 62%
    15:00 +22°C° 0 mm 7 mps 763 mmHg 62%
    16:00 +21°C° 0 mm 7 mps 763 mmHg 65%
    17:00 +21°C° 0 mm 6 mps 763 mmHg 68%
    18:00 +20°C° 0 mm 6 mps 762 mmHg 70%
    19:00 +17°C° 0 mm 6 mps 763 mmHg 72%
    20:00 +16°C° 0 mm 6 mps 763 mmHg 73%
    21:00 +15°C° 0 mm 5 mps 763 mmHg 74%
    22:00 +14°C° 0 mm 5 mps 763 mmHg 77%
    23:00 +13°C° 0 mm 5 mps 763 mmHg 80%

    Tomorrow, 28 June, Friday

    Time Temperature Precipitation Wind Pressure Humidity
    00:00 +13°C° 0 mm 5 mps 763 mmHg 83%
    01:00 +12°C° 0 mm 5 mps 763 mmHg 85%
    02:00 +12°C° 0 mm 4 mps 762 mmHg 86%
    03:00 +12°C° 0 mm 4 mps 762 mmHg 88%
    04:00 +12°C° 0 mm 4 mps 762 mmHg 87%
    05:00 +13°C° 0 mm 5 mps 762 mmHg 86%
    06:00 +14°C° 0 mm 5 mps 761 mmHg 85%
    07:00 +15°C° 0 mm 5 mps 761 mmHg 81%
    08:00 +17°C° 0 mm 5 mps 761 mmHg 77%
    09:00 +20°C° 0 mm 6 mps 761 mmHg 72%
    10:00 +21°C° 0 mm 6 mps 761 mmHg 69%
    11:00 +22°C° 0 mm 6 mps 761 mmHg 66%
    12:00 +23°C° 0 mm 6 mps 760 mmHg 63%
    13:00 +23°C° 0 mm 6 mps 760 mmHg 62%
    14:00 +24°C° 0 mm 6 mps 760 mmHg 61%
    15:00 +24°C° 0 mm 6 mps 759 mmHg 60%
    16:00 +23°C° 0 mm 5 mps 759 mmHg 63%
    17:00 +22°C° 0 mm 5 mps 759 mmHg 65%
    18:00 +21°C° 0 mm 5 mps 758 mmHg 68%
    19:00 +19°C° 0 mm 4 mps 758 mmHg 71%
    20:00 +18°C° 0 mm 4 mps 758 mmHg 74%
    21:00 +17°C° 0 mm 4 mps 758 mmHg 77%
    22:00 +15°C° 0 mm 4 mps 758 mmHg 80%
    23:00 +16°C° 0 mm 3 mps 758 mmHg 83%

    Day after tomorrow, 29 June, Saturday

    Time Temperature Precipitation Wind Pressure Humidity
    00:00 +14°C° 0 mm 3 mps 757 mmHg 86%
    01:00 +14°C° 0 mm 3 mps 757 mmHg 87%
    02:00 +14°C° 0 mm 3 mps 757 mmHg 88%
    03:00 +14°C° 0 mm 3 mps 756 mmHg 89%
    04:00 +16°C° 0 mm 3 mps 756 mmHg 87%
    05:00 +17°C° 0 mm 3 mps 756 mmHg 85%
    06:00 +18°C° 0 mm 3 mps 755 mmHg 83%
    07:00 +20°C° 0 mm 3 mps 755 mmHg 80%
    08:00 +21°C° 0 mm 4 mps 755 mmHg 76%
    09:00 +23°C° 0 mm 4 mps 755 mmHg 73%
    10:00 +25°C° 0 mm 4 mps 754 mmHg 69%
    11:00 +27°C° 0 mm 5 mps 754 mmHg 66%
    12:00 +28°C° 0 mm 5 mps 753 mmHg 63%
    13:00 +28°C° 0 mm 5 mps 753 mmHg 63%
    14:00 +28°C° 0 mm 5 mps 753 mmHg 63%
    15:00 +28°C° 0 mm 5 mps 752 mmHg 63%
    16:00 +27°C° 0 mm 4 mps 752 mmHg 68%
    17:00 +26°C° 0 mm 4 mps 752 mmHg 73%
    18:00 +25°C° 0 mm 4 mps 752 mmHg 77%
    19:00 +23°C° 0 mm 4 mps 752 mmHg 80%
    20:00 +21°C° 0 mm 4 mps 752 mmHg 83%
    21:00 +20°C° 0 mm 4 mps 752 mmHg 86%
    22:00 +18°C° 0 mm 4 mps 753 mmHg 84%
    23:00 +17°C° 0 mm 4 mps 753 mmHg 82%

    30 June, Sunday

    Time Temperature Precipitation Wind Pressure Humidity
    00:00 +14°C° 0 mm 4 mps 753 mmHg 80%
    01:00 +13°C° 0 mm 4 mps 753 mmHg 84%
    02:00 +13°C° 0 mm 3 mps 753 mmHg 89%
    03:00 +12°C° 0 mm 3 mps 753 mmHg 94%
    04:00 +13°C° 0 mm 3 mps 754 mmHg 93%
    05:00 +13°C° 0 mm 4 mps 754 mmHg 91%
    06:00 +14°C° 0 mm 4 mps 754 mmHg 90%
    07:00 +15°C° 0 mm 4 mps 755 mmHg 87%
    08:00 +17°C° 0 mm 4 mps 755 mmHg 83%
    09:00 +18°C° 0 mm 4 mps 755 mmHg 80%
    10:00 +19°C° 0 mm 5 mps 755 mmHg 77%
    11:00 +20°C° 0 mm 5 mps 755 mmHg 73%
    12:00 +21°C° 0 mm 5 mps 756 mmHg 70%
    13:00 +22°C° 0 mm 5 mps 755 mmHg 69%
    14:00 +22°C° 0 mm 5 mps 755 mmHg 68%
    15:00 +22°C° 0 mm 5 mps 755 mmHg 67%
    16:00 +22°C° 0.1 mm 5 mps 755 mmHg 71%
    17:00 +21°C° 0.1 mm 5 mps 755 mmHg 74%
    18:00 +20°C° 0.1 mm 5 mps 755 mmHg 77%
    19:00 +19°C° 0 mm 5 mps 755 mmHg 80%
    20:00 +17°C° 0 mm 4 mps 755 mmHg 83%
    21:00 +14°C° 0 mm 4 mps 755 mmHg 85%
    22:00 +13°C° 0 mm 4 mps 755 mmHg 88%
    23:00 +13°C° 0 mm 4 mps 756 mmHg 90%

    1 July, Monday

    Time Temperature Precipitation Wind Pressure Humidity
    00:00 +12°C° 0 mm 4 mps 756 mmHg 93%
    01:00 +12°C° 0 mm 4 mps 756 mmHg 93%
    02:00 +11°C° 0 mm 4 mps 756 mmHg 94%
    03:00 +11°C° 0 mm 3 mps 756 mmHg 95%
    04:00 +11°C° 0 mm 4 mps 756 mmHg 92%
    05:00 +12°C° 0 mm 4 mps 756 mmHg 89%
    06:00 +12°C° 0 mm 4 mps 757 mmHg 87%
    07:00 +13°C° 0 mm 4 mps 757 mmHg 82%
    08:00 +15°C° 0 mm 4 mps 757 mmHg 77%
    09:00 +17°C° 0 mm 4 mps 757 mmHg 73%
    10:00 +18°C° 0 mm 4 mps 758 mmHg 71%
    11:00 +18°C° 0 mm 4 mps 758 mmHg 70%
    12:00 +19°C° 0 mm 4 mps 758 mmHg 68%
    13:00 +19°C° 0 mm 5 mps 758 mmHg 68%
    14:00 +19°C° 0 mm 5 mps 758 mmHg 68%
    15:00 +19°C° 0 mm 5 mps 758 mmHg 69%
    16:00 +19°C° 0 mm 5 mps 758 mmHg 71%
    17:00 +19°C° 0 mm 4 mps 758 mmHg 73%
    18:00 +19°C° 0 mm 4 mps 758 mmHg 75%
    19:00 +17°C° 0 mm 3 mps 759 mmHg 80%
    20:00 +16°C° 0 mm 3 mps 759 mmHg 84%
    21:00 +14°C° 0 mm 3 mps 759 mmHg 88%
    22:00 +13°C° 0 mm 3 mps 759 mmHg 88%
    23:00 +12°C° 0 mm 3 mps 760 mmHg 88%

    2 July, Tuesday

    Time Temperature Precipitation Wind Pressure Humidity
    00:00 +12°C° 0 mm 2 mps 760 mmHg 89%
    01:00 +10°C° 0 mm 2 mps 760 mmHg 89%
    02:00 +10°C° 0 mm 2 mps 760 mmHg 89%
    03:00 +9°C° 0 mm 2 mps 760 mmHg 90%
    04:00 +9°C° 0 mm 2 mps 760 mmHg 88%
    05:00 +10°C° 0 mm 3 mps 760 mmHg 86%
    06:00 +10°C° 0 mm 3 mps 761 mmHg 84%
    07:00 +12°C° 0 mm 3 mps 761 mmHg 80%
    08:00 +14°C° 0 mm 3 mps 761 mmHg 76%
    09:00 +16°C° 0 mm 3 mps 761 mmHg 71%
    10:00 +17°C° 0 mm 3 mps 761 mmHg 67%
    11:00 +19°C° 0 mm 3 mps 761 mmHg 63%
    12:00 +20°C° 0 mm 3 mps 761 mmHg 59%
    13:00 +20°C° 0 mm 3 mps 761 mmHg 59%
    14:00 +20°C° 0 mm 3 mps 761 mmHg 59%
    15:00 +20°C° 0 mm 3 mps 761 mmHg 59%
    16:00 +20°C° 0 mm 3 mps 761 mmHg 62%
    17:00 +19°C° 0 mm 3 mps 761 mmHg 66%
    18:00 +19°C° 0 mm 3 mps 761 mmHg 69%
    19:00 +17°C° 0 mm 3 mps 761 mmHg 74%
    20:00 +16°C° 0 mm 3 mps 761 mmHg 78%
    21:00 +13°C° 0 mm 3 mps 761 mmHg 83%
    22:00 +12°C° 0 mm 3 mps 761 mmHg 84%
    23:00 +12°C° 0 mm 3 mps 761 mmHg 84%
    Show more